Powrót do katalogu

STARLINK-30908

AktywnyŁącznośćVLEO
NORAD 58424·PAYLOAD·🇺🇸 United States

Wystrzelony Nov 22, 2023 z Cape Canaveral Space Force Station

Loading…

Następne Przeloty (najbliższe 24 godziny)

TLE

ŚwieżeSource: CelesTrak SupGP

Epoka: Sep 15, 2026, 02:24 UTC

1 58424C 23180Y   26258.10048611 -.00018803  00000+0 -68093-3 0  2589
2 58424  43.0007  62.6685 0001426 272.6646 136.1102 15.27593306    14

Śledź STARLINK-30908 w czasie rzeczywistym z AllMySat

Download on the App Store